[[{"header":{"parameterUnit":"m.s-1","parameterCategory":1,"la1":30.2991,"la2":30.254,"lo1":-89.0895,"lo2":-89.0444,"dy":0.0017,"dx":0.0017,"nx":28,"ny":28,"refTime":"2024-05-30T21:00:00:Z","depth":0,"parameterNumber":2,"parameterNumberName":"U-component_of_WINDS"},"data":[0,0,0,0,0,0,0,0,0,0,0,0,0,0,0,0,0,0,0,0,0,0,0,0,0,0,0,0,0,0,0,0,0,0,0,0,0,0,0,0,0,0,0,0,0,0,0,0,0,0,0,0,0,0,0,0,0,0,-4.3758,-4.3759,0,-4.3875,-4.3876,-4.3878,-4.3909,-4.3908,-4.3907,-4.3906,-4.4026,-4.403,-4.4034,0,0,0,0,0,0,0,0,0,0,0,0,0,-4.3562,-4.3566,-4.3758,-4.3759,-4.3761,-4.3875,-4.3876,-4.3878,-4.3909,-4.3908,-4.3907,-4.3906,-4.4025,-4.4029,-4.4034,0,0,0,0,0,0,0,0,0,0,0,0,0,-4.366,-4.3567,-4.3758,-4.379,-4.3794,-4.3874,-4.3876,-4.3878,-4.3909,-4.3908,-4.3907,-4.3906,-4.4023,-4.4029,-4.4035,-4.4091,0,0,-4.4052,-4.4055,0,0,0,0,0,0,0,0,-4.3654,-4.3667,-4.3784,-4.3788,-4.3792,-4.3876,-4.3851,-4.395,-4.3909,-4.3865,-4.3906,-4.3905,-4.3977,-4.3986,-4.4011,-4.4097,-4.4102,-4.4053,-4.4056,-4.4059,-4.406,0,0,0,0,0,0,0,-4.3648,-4.3662,-4.3804,-4.3785,-4.3791,-4.3799,-4.3812,-4.387,-4.3926,-4.3869,-4.3871,-4.3885,-4.3979,-4.4005,-4.4014,-4.4104,-4.4052,-4.4058,-4.4061,-4.4063,-4.4244,-4.4245,0,0,0,0,0,0,-4.3635,-4.3656,-4.38,-4.3808,-4.3719,-4.3803,-4.3818,-4.385,-4.3925,-4.3935,-4.3886,-4.3886,-4.3996,-4.4007,-4.4018,-4.409,-4.4059,-4.4064,-4.4067,-4.4243,-4.4244,-4.4246,0,0,0,0,0,0,-4.3631,-4.3648,-4.3796,-4.3733,-4.3752,-4.3808,-4.3844,-4.3853,-4.3879,-4.3938,-4.3948,-4.3902,-4.3995,-4.401,-4.4073,-4.4094,-4.4067,-4.4072,-4.4241,-4.4243,-4.4245,-4.4233,0,0,0,0,0,0,-4.3625,-4.3646,-4.3667,-4.3733,-4.3756,-4.3848,-4.3846,-4.3856,-4.3889,-4.389,-4.3956,-4.3965,-4.3996,-4.4064,-4.4079,-4.4102,-4.4076,-4.424,-4.4242,-4.4245,-4.4232,-4.4234,-4.4237,0,0,0,0,0,-4.3618,-4.3659,-4.3668,-4.3686,-4.3784,-4.3849,-4.3862,-4.3896,-4.389,-4.3913,-4.3951,-4.3963,-4.409,-4.4071,-4.4087,-4.4112,-4.4238,-4.4241,-4.4244,-4.4231,-4.4234,-4.4237,0,0,0,0,0,0,-4.3593,-4.3668,-4.3679,-4.3743,-4.379,-4.3854,-4.3883,-4.3899,-4.3948,-4.3947,-4.3988,-4.4002,-4.4063,-4.4094,-4.4071,-4.4172,-4.4165,-4.4171,-4.4148,-4.4152,-4.4154,-4.4144,-4.4081,0,0,0,0,0,-4.3596,-4.3643,-4.3706,-4.3756,-4.3779,-4.3827,-4.3857,-4.388,-4.393,-4.3949,-4.3992,-4.404,-4.4091,-4.4124,-4.4174,-4.4238,-4.4252,-4.4263,-4.4266,-4.4267,-4.4272,-4.4309,-4.4314,-4.4256,-4.4256,-4.4256,0,0,-4.36,-4.3647,-4.3674,-4.3752,-4.3791,-4.3839,-4.3843,-4.3894,-4.393,-4.3957,-4.4019,-4.4053,-4.4109,-4.4173,-4.4204,-4.4201,-4.4292,-4.4271,-4.4272,-4.4276,-4.4312,-4.4318,-4.4322,-4.4258,-4.4258,-4.4257,0,0,-4.3633,-4.3673,-4.3719,-4.3759,-4.3818,-4.385,-4.3862,-4.3925,-4.3948,-4.4012,-4.4034,-4.4078,-4.4165,-4.4204,-4.4236,-4.4287,-4.43,-4.4302,-4.4314,-4.4349,-4.4354,-4.4358,-4.4376,-4.4382,-4.4307,-4.4307,-4.4307,0,-4.363,-4.3703,-4.3741,-4.3791,-4.3824,-4.3853,-4.39,-4.3937,-4.401,-4.4033,-4.403,-4.414,-4.418,-4.4254,-4.4267,-4.4292,-4.4306,-4.4294,-4.435,-4.4355,-4.436,-4.4377,-4.4383,-4.4307,-4.4307,-4.4307,-4.4307,0,-4.3698,-4.3748,-4.3779,-4.3849,-4.3886,-4.3935,-4.398,-4.4014,-4.4035,-4.4068,-4.4133,-4.4183,-4.4244,-4.4264,-4.4283,-4.4341,-4.4338,-4.4342,-4.4335,-4.4364,-4.4381,-4.4388,-4.4307,-4.4307,-4.4307,-4.4307,0,0,-4.3715,-4.3807,-4.3817,-4.385,-4.3919,-4.3959,-4.401,-4.407,-4.4098,-4.4148,-4.4192,-4.4266,-4.4271,-4.4307,-4.4332,-4.4364,-4.4401,-4.4365,-4.4367,-4.4369,-4.4467,-4.4462,-4.4469,-4.4411,-4.4413,-4.4414,-4.4462,0,-4.3755,-4.3845,-4.3882,-4.3956,-4.4003,-4.4032,-4.4077,-4.4124,-4.4157,-4.4203,-4.424,-4.4292,-4.4295,-4.4317,-4.435,-4.4389,-4.4421,-4.4387,-4.4452,-4.4454,-4.4434,-4.4478,-4.4473,-4.4515,-4.4469,-4.447,-4.4471,0,-4.3813,-4.3864,-4.3942,-4.4007,-4.4028,-4.4067,-4.4126,-4.417,-4.4225,-4.4247,-4.4288,-4.4313,-4.4368,-4.4359,-4.4436,-4.4412,-4.4442,-4.4466,-4.4468,-4.4474,-4.4462,-4.4484,-4.453,-4.4536,-4.4482,-4.4481,-4.4481,0,-4.3816,-4.3905,-4.3964,-4.3991,-4.4068,-4.4095,-4.4128,-4.4182,-4.4217,-4.4269,-4.4292,-4.435,-4.4381,-4.4426,-4.4466,-4.4456,-4.4539,-4.4534,-4.4559,-4.4558,-4.4573,-4.4571,-4.4623,-4.4594,-4.4594,-4.4594,-4.4594,0,-4.3856,-4.3903,-4.3966,-4.4002,-4.4056,-4.4098,-4.4151,-4.4186,-4.4235,-4.4278,-4.4308,-4.4349,-4.44,-4.4447,-4.4479,-4.4538,-4.4552,-4.4571,-4.4579,-4.4568,-4.4565,-4.4586,-4.4583,-4.4596,-4.4596,-4.4595,-4.4595,0,-4.3868,-4.3913,-4.3978,-4.4047,-4.4065,-4.4101,-4.416,-4.4197,-4.4232,-4.4288,-4.4303,-4.4359,-4.4417,-4.4462,-4.4537,-4.4558,-4.462,-4.4629,-4.4601,-4.4604,-4.4626,-4.4623,-4.4692,-4.4703,-4.4668,-4.4669,-4.4669,0,-4.389,-4.3926,-4.3999,-4.403,-4.4064,-4.4114,-4.415,-4.4194,-4.423,-4.4297,-4.4326,-4.4386,-4.4436,-4.4527,-4.4574,-4.4632,-4.4642,-4.4663,-4.4651,-4.4639,-4.4641,-4.4638,-4.4642,-4.4663,-4.4663,-4.4663,-4.4663,0,-4.3923,-4.3944,-4.3994,-4.4052,-4.4094,-4.4142,-4.4191,-4.4215,-4.4269,-4.4308,-4.4368,-4.4407,-4.4484,-4.4543,-4.4606,-4.4642,-4.4662,-4.4667,-4.4676,-4.4664,-4.4645,-4.4655,-4.4603,-4.4665,-4.4665,-4.4664,-4.4664,-4.4664,-4.394,-4.3974,-4.4031,-4.4086,-4.4128,-4.4173,-4.4211,-4.4252,-4.4302,-4.4368,-4.4392,-4.4453,-4.451,-4.4597,-4.4633,-4.4682,-4.4683,-4.4696,-4.4699,-4.4701,-4.4699,-4.4639,-4.4694,-4.4694,-4.4694,-4.4694,-4.4694,0,-4.3974,-4.4013,-4.4063,-4.4131,-4.4175,-4.4191,-4.4246,-4.4282,-4.4335,-4.4386,-4.4435,-4.4504,-4.4562,-4.4616,-4.4677,-4.4706,-4.4717,-4.472,-4.4718,-4.4726,-4.4695,-4.4681,-4.4711,-4.4711,-4.4711,-4.4711,-4.4711,-4.4711,-4.3997,-4.4055,-4.4083,-4.4164,-4.4202,-4.4262,-4.4292,-4.4335,-4.4376,-4.4451,-4.45,-4.4535,-4.4587,-4.4653,-4.4707,-4.4722,-4.4742,-4.4743,-4.476,-4.473,-4.4728,-4.4725,-4.4712,-4.4748,-4.4748,-4.4786,-4.4786,-4.4786]},{"header":{"parameterUnit":"m.s-1","parameterCategory":1,"la1":30.2991,"la2":30.254,"lo1":-89.0895,"lo2":-89.0444,"dy":0.0017,"dx":0.0017,"nx":28,"ny":28,"refTime":"2024-05-30T21:00:00:Z","depth":0,"parameterNumber":3,"parameterNumberName":"V-component_of_WINDS"},"data":[0,0,0,0,0,0,0,0,0,0,0,0,0,0,0,0,0,0,0,0,0,0,0,0,0,0,0,0,0,0,0,0,0,0,0,0,0,0,0,0,0,0,0,0,0,0,0,0,0,0,0,0,0,0,0,0,0,0,4.4489,4.4489,0,4.4523,4.4524,4.4524,4.4569,4.4569,4.457,4.4571,4.4602,4.4602,4.4602,0,0,0,0,0,0,0,0,0,0,0,0,0,4.4458,4.4458,4.4489,4.4489,4.449,4.4523,4.4524,4.4524,4.4569,4.4569,4.457,4.4571,4.4601,4.4602,4.4602,0,0,0,0,0,0,0,0,0,0,0,0,0,4.448,4.4459,4.4489,4.4516,4.4519,4.4523,4.4524,4.4524,4.4568,4.457,4.4571,4.4572,4.4601,4.4602,4.4602,4.4581,0,0,4.4602,4.4602,0,0,0,0,0,0,0,0,4.4478,4.4481,4.4511,4.4514,4.4517,4.4543,4.4524,4.4543,4.4568,4.4549,4.4571,4.4572,4.4581,4.4583,4.4587,4.4582,4.4584,4.4602,4.4602,4.4603,4.4603,0,0,0,0,0,0,0,4.4477,4.448,4.4502,4.4512,4.4515,4.4525,4.453,4.4528,4.4558,4.4551,4.4554,4.4558,4.4583,4.4586,4.4588,4.4584,4.4602,4.4603,4.4603,4.4603,4.4566,4.4565,0,0,0,0,0,0,4.4472,4.4478,4.4501,4.4503,4.45,4.4525,4.453,4.4533,4.4558,4.4563,4.4557,4.456,4.4586,4.4587,4.4589,4.4567,4.4603,4.4603,4.4603,4.4567,4.4565,4.4564,0,0,0,0,0,0,4.4471,4.4473,4.45,4.4492,4.4496,4.4525,4.4528,4.4534,4.4538,4.4563,4.4568,4.4556,4.4586,4.4589,4.4583,4.4569,4.4603,4.4603,4.4568,4.4566,4.4565,4.4522,0,0,0,0,0,0,4.447,4.4473,4.4466,4.4491,4.4496,4.4494,4.4527,4.4533,4.4538,4.4542,4.4563,4.4568,4.4587,4.4583,4.4583,4.4569,4.4603,4.4569,4.4567,4.4565,4.4525,4.4519,4.4514,0,0,0,0,0,4.4469,4.4451,4.4465,4.4468,4.4488,4.4493,4.4496,4.452,4.4537,4.453,4.4547,4.4567,4.457,4.4582,4.4583,4.4569,4.457,4.4568,4.4565,4.4527,4.452,4.4514,0,0,0,0,0,0,4.4421,4.4455,4.4471,4.4461,4.4474,4.4501,4.4492,4.4512,4.4519,4.4523,4.4552,4.4556,4.4547,4.4557,4.457,4.4551,4.4574,4.4571,4.4544,4.4538,4.4532,4.453,4.4603,0,0,0,0,0,4.4409,4.4412,4.4441,4.4429,4.4436,4.4463,4.4466,4.4484,4.4498,4.4503,4.452,4.4531,4.4536,4.4537,4.4542,4.4527,4.4532,4.4518,4.4513,4.4508,4.4505,4.4499,4.4493,4.4556,4.4556,4.4556,0,0,4.4385,4.4404,4.4403,4.442,4.4433,4.4434,4.4467,4.4466,4.4468,4.4503,4.4499,4.4512,4.4527,4.4517,4.4513,4.4525,4.449,4.4505,4.4501,4.4501,4.4496,4.449,4.4485,4.4554,4.4555,4.4555,0,0,4.4342,4.4356,4.4349,4.4362,4.4381,4.4399,4.4398,4.4422,4.4432,4.443,4.4457,4.4458,4.4464,4.4474,4.448,4.4443,4.4462,4.4444,4.4415,4.4409,4.4404,4.44,4.4387,4.4382,4.4441,4.4441,4.4441,0,4.4309,4.4313,4.4342,4.4341,4.4348,4.4382,4.4375,4.4385,4.4404,4.4408,4.4421,4.4431,4.4443,4.4437,4.4428,4.4432,4.443,4.4441,4.4403,4.4399,4.4395,4.4383,4.4378,4.4439,4.4439,4.4439,4.4439,0,4.4272,4.4275,4.4266,4.4286,4.4292,4.4288,4.4316,4.4318,4.4336,4.4353,4.435,4.4367,4.4377,4.4377,4.4393,4.4373,4.438,4.4398,4.4421,4.4386,4.4376,4.4371,4.4435,4.4436,4.4437,4.4437,0,0,4.4197,4.4236,4.4232,4.4242,4.4267,4.4269,4.4267,4.4278,4.428,4.4292,4.429,4.4296,4.4313,4.432,4.4338,4.4333,4.4303,4.4352,4.4353,4.4342,4.4282,4.4268,4.4263,4.4317,4.4316,4.4316,4.4281,0,4.4159,4.4158,4.4185,4.4176,4.4179,4.4213,4.4211,4.4225,4.4242,4.4246,4.4263,4.4267,4.429,4.4294,4.429,4.4308,4.4292,4.4311,4.4315,4.4315,4.431,4.4257,4.4242,4.4208,4.4277,4.4276,4.4276,0,4.4113,4.4125,4.4117,4.4144,4.4147,4.4144,4.4158,4.4162,4.4179,4.4191,4.42,4.4222,4.4221,4.4244,4.4243,4.4255,4.4259,4.4267,4.4267,4.4268,4.4293,4.4256,4.4198,4.4193,4.4269,4.427,4.427,0,4.406,4.4074,4.4072,4.408,4.4111,4.4109,4.4121,4.414,4.4146,4.4157,4.4161,4.4171,4.4177,4.4184,4.4208,4.4223,4.4204,4.4229,4.4213,4.4213,4.4207,4.4207,4.4149,4.421,4.421,4.421,4.421,0,4.4014,4.4007,4.4049,4.4047,4.4042,4.4073,4.4066,4.4082,4.4098,4.41,4.4129,4.413,4.4162,4.4166,4.4185,4.4181,4.4183,4.4193,4.4197,4.419,4.4189,4.4192,4.4195,4.4209,4.4209,4.4209,4.4209,0,4.3953,4.3981,4.398,4.4011,4.4019,4.4013,4.4039,4.4038,4.4057,4.4059,4.4061,4.409,4.4097,4.4122,4.4133,4.4146,4.4136,4.4146,4.4131,4.4134,4.4117,4.4119,4.4059,4.4053,4.4118,4.4117,4.4116,0,4.3922,4.3918,4.3949,4.3953,4.3965,4.3971,4.3978,4.4009,4.4014,4.4035,4.4032,4.4041,4.405,4.4059,4.408,4.409,4.41,4.4079,4.4102,4.4094,4.41,4.41,4.41,4.4073,4.4073,4.4072,4.4071,0,4.3863,4.3878,4.3887,4.3901,4.3909,4.3922,4.3935,4.3937,4.3971,4.3976,4.3984,4.3991,4.4005,4.4014,4.4027,4.4039,4.4061,4.4064,4.4061,4.4053,4.4045,4.4049,4.4117,4.4065,4.4066,4.4066,4.4067,4.4067,4.3816,4.3815,4.3838,4.3847,4.3862,4.3875,4.3876,4.3896,4.3904,4.3919,4.3937,4.3943,4.3961,4.3982,4.3993,4.3997,4.4009,4.4004,4.4003,4.4002,4.3998,4.4044,4.4,4.4,4.4,4.4,4.4,0,4.376,4.3776,4.3785,4.3805,4.3813,4.3835,4.3852,4.3856,4.3862,4.3878,4.3887,4.3897,4.3906,4.3929,4.3941,4.394,4.395,4.3942,4.3942,4.3944,4.3987,4.3988,4.3934,4.3934,4.3934,4.3934,4.3934,4.3934,4.3731,4.3731,4.3748,4.3756,4.3772,4.378,4.3788,4.38,4.3813,4.3823,4.3832,4.3848,4.3867,4.388,4.3889,4.3896,4.3898,4.3887,4.3896,4.3935,4.3941,4.3947,4.3949,4.3887,4.3887,4.3854,4.3854,4.3853]}]]